Classifiche virtuali

Italo Cassol, vincitore della Gara Maschile. Foto di Repertorio

La Mezza Maratona Del Brenta, ha rappresentato il primo appuntamento agonistico sulla mezza maratona per molti runner Veneti e dalle regioni limitrofe. 

La corsa si è svolta su un percorso leggermente ondulato tra Bassano del Grappa e Marostica in una giornata particolarmente fresca per la stagione (questi i dati rilevati ed elaborati da RunBull: Temperatura 16,2° Umidità 65% Radiazione Solare 477w/m^2 Vento 15km)

Le condizioni termiche si sono rivelate ideali per realizzare buone prestazioni sulla distanza dei 21,0975 km, seppure la marcia dei podisti sia stata infastidita da un moderato vento da Nord.

Italo Cassol e Maurizia Cunico, si sono aggiudicati la corsa con 01:09:43 e  01:23:36.

In particolare, l’atleta tesserato LA RECASTELLO RADICI GROUP e specialista della corsa in montagna, ha corso buona parte della corsa in solitaria dimostrando, anche alla luce della normalizzazione del risultato, un importante potenziale.

Quanto hanno perso gli atleti a causa dell’altimetria e delle condizioni ambientali? L’ analisi di normalizzazione RunBull e la definizione della prestazione assoluta ( Qui una presentazione del modello: https://runbull.net/classifiche-virtuali/ ) si è rivelata particolarmente interessante, considerato il percorso nervoso e la variabile meteorologica del vento.

 

Ti ricordiamo che scaricando l’App RunBull e sincronizzando il tuo device potrai accedere gratuitamente alle informazioni di normalizzazione e ad altri contenuti ad alto valore, dopo ogni gara o allenamento. 

Non solo, dal prossimo week-end sarà possibile condividere l’esperienza con i tuoi amici e seguire gli allenamenti di importanti atleti d’elite.

 

Scorri la classifica e visualizza i risultati normalizzati

 

 

 

 

PosizioneCognomeNomeTempoUfficialeΔ AltitudineΔ MeteoPrestazione Assoluta
1CASSOLITALO01:09:4300:00:1300:00:1401:09:16
2VECCHIETTIMATTEO01:13:3400:00:1500:00:1501:13:04
3CONFESSAEDGARDO01:13:5800:00:1500:00:1501:13:28
4VIVIANLUIGI01:13:5900:00:1500:00:1501:13:29
5MAIORANOGIANLUCA01:15:4200:00:1600:00:1501:15:11
6MASTROTTONICOLA01:16:3400:00:1700:00:1501:16:02
7TRULLARICCARDO01:17:0800:00:1700:00:1501:16:35
8MONTEMEZZOMATTEO01:17:1300:00:1700:00:1501:16:40
9CECCATODENIS01:18:5600:00:1800:00:1601:18:22
10BEDINNAZZARENO01:19:2600:00:1800:00:1601:18:52
11CORTIANASIMONE01:20:1100:00:1900:00:1601:19:36
12GRASSOFRANCESCO01:20:2600:00:1900:00:1601:19:51
13ZAPPAENRICO01:21:1000:00:1900:00:1601:20:34
14FRUCITOMMASO01:21:1900:00:1900:00:1601:20:43
15TRIVELLINFEDERICO01:21:2100:00:1900:00:1601:20:45
16BARACCOALBERTO01:21:5000:00:2000:00:1701:21:14
17DELMONTEFABRIZIO01:22:0000:00:2000:00:1701:21:24
18BUSATTAFAUSTO01:22:1500:00:2000:00:1701:21:38
19VALENTINIMAURO01:22:1600:00:2000:00:1701:21:39
20CARNIGLIASIMONE01:22:1900:00:2000:00:1701:21:42
21LA PLACAPAOLO01:22:2000:00:2000:00:1701:21:43
22PRETTOTIZIANO01:22:2400:00:2000:00:1701:21:47
23BELLINMICHELE01:22:4000:00:2000:00:1701:22:03
24PIZZATOMASSIMO01:22:4200:00:2000:00:1701:22:05
25CHANTELOUPJEAN LOUIS01:22:5000:00:2000:00:1701:22:13
26BONOMOROSARIO01:23:0400:00:2000:00:1701:22:27
27CEOTTODAVIDE01:23:0500:00:2000:00:1701:22:28
28PETRELLASIMONE01:23:0700:00:2000:00:1701:22:30
29RIZZONEMILIO01:23:0700:00:2000:00:1701:22:30
30DAFFIANDREA01:23:2900:00:2100:00:1701:22:51
31CUNICOMAURIZIA01:23:3600:00:2100:00:1701:22:58
32RAVANETTILUIGI01:23:4000:00:2100:00:1701:23:02
33FONGARORICCARDO01:23:5800:00:2100:00:1701:23:20
34ANGIONINICOLA01:24:0500:00:2100:00:1701:23:27
35ZANCANERALESSANDRO01:24:0600:00:2100:00:1701:23:28
36GUARNIERIUMBERTO01:24:0800:00:2100:00:1701:23:30
37PIERETTILAURA01:24:1400:00:2100:00:1701:23:36
38BORSATOALBERTO01:25:0500:00:2200:00:1701:24:26
39SALVANPAOLO01:25:3900:00:2200:00:1701:25:00
40SPAGNOLOGIANCARLO01:25:4300:00:2200:00:1701:25:04
41CESCHICRISTIAN01:25:5900:00:2200:00:1801:25:19
42PANIZZOLODAVIDE01:26:0500:00:2200:00:1801:25:25
43BRANCACCIOEDOARDO01:26:0600:00:2200:00:1801:25:26
44MOGNONEVA LIZ01:26:0800:00:2200:00:1801:25:28
45NICASTROSALVATORE01:26:1200:00:2200:00:1801:25:32
46ALBARELLIDANIELE01:26:1300:00:2200:00:1801:25:33
47RAVAGNANGIORGIO01:26:1300:00:2200:00:1801:25:33
48TURCHETTIDAVIDE01:26:1300:00:2200:00:1801:25:33
49TONIFABIO01:26:2000:00:2200:00:1801:25:40
50D’ANGELIVALENTINA01:26:3400:00:2200:00:1801:25:54
51ZIRONDAROBERTO01:26:4300:00:2200:00:1801:26:03
52NARDELLIGILLES01:26:4600:00:2200:00:1801:26:06
53STOPELLIMARCO01:26:4800:00:2300:00:1801:26:08
54PALESAMARCO01:26:5300:00:2300:00:1801:26:13
55TRESOLDIALESSANDRO01:27:0600:00:2300:00:1801:26:26
56IRMICIANTONIO01:27:1100:00:2300:00:1801:26:30
57CARRAROLISA01:27:1300:00:2300:00:1801:26:32
58REGAIOLLIBARBARA01:27:1400:00:2300:00:1801:26:33
59PACCHETTIANNA01:27:1800:00:2300:00:1801:26:37
60TIBALDOSIMONE01:27:2700:00:2300:00:1801:26:46
61CARLESSODENIS01:27:3400:00:2300:00:1801:26:53
62SANVIDOSIMONE01:28:1000:00:2300:00:1801:27:29
63BATALLIARBER01:28:1800:00:2300:00:1801:27:37
64CERANTOLAGERRI01:28:2600:00:2300:00:1801:27:44
65CHEMELLOROBERTO01:28:2700:00:2300:00:1801:27:45
66CANEVESELUCA01:28:2800:00:2300:00:1801:27:46
67MARTELLOZZONICOLA01:28:4700:00:2400:00:1801:28:05
68FORNERAALESSANDRO01:28:4900:00:2400:00:1801:28:07
69AZZARIBRUNO01:28:4900:00:2400:00:1801:28:07
70SCIESSEREEROS01:28:4900:00:2400:00:1801:28:07
71PINZINGABRIELE01:28:5100:00:2400:00:1801:28:09
72TARTERROBERTA01:28:5600:00:2400:00:1801:28:14
73CHIARENZASALVATORE FABIO01:29:0200:00:2400:00:1801:28:20
74ZANETTIIVAN01:29:2300:00:2400:00:1801:28:41
75BRUSCHIDAVIDE01:29:2600:00:2400:00:1801:28:44
76PEZZOLIALEX01:29:3300:00:2400:00:1801:28:51
77CENGHIALTAEMANUELE01:29:3400:00:2400:00:1801:28:52
78DIQUIGIOVANNIBARBARA01:29:4000:00:2400:00:1801:28:57
79ZAGODARIO01:29:4000:00:2400:00:1801:28:57
80BORTOLATOGIANNI01:30:0100:00:2400:00:1801:29:18
81PONCINAALESSANDRO01:30:1200:00:2400:00:1901:29:29
82SCREMINGIANNI01:30:1300:00:2400:00:1901:29:30
83MARMAIFEDERICO01:30:1800:00:2400:00:1901:29:35
84PASCULLIMICHELE01:30:1900:00:2400:00:1901:29:36
85RONCATOLORIS01:30:2000:00:2400:00:1901:29:37
86COSTACARLO01:30:2500:00:2500:00:1901:29:42
87GABRIELLIDAVIDE01:30:2900:00:2500:00:1901:29:46
88GAGNOANDREA01:31:0000:00:2500:00:1901:30:16
89BALDISSERIMORENO01:31:0100:00:2500:00:1901:30:17
90SANTINGIOVANNI01:31:0100:00:2500:00:1901:30:17
91MOTTAANGELO01:31:0300:00:2500:00:1901:30:19
92DAL LAGODAVIDE01:31:0400:00:2500:00:1901:30:20
93MAROSOANDREA01:31:0500:00:2500:00:1901:30:21
94TREGNAGHIFILIPPO01:31:1100:00:2500:00:1901:30:27
95KOSTICMILORAD01:31:1200:00:2500:00:1901:30:28
96VALLATIALESSIO01:31:1600:00:2500:00:1901:30:32
97MUNEROTTOLORENZO01:31:2200:00:2500:00:1901:30:38
98PASSARINDENIS01:31:2700:00:2500:00:1901:30:43
99MOROREMIGIO01:31:2800:00:2500:00:1901:30:44
100STEFANIGIULIO01:31:2800:00:2500:00:1901:30:44
101LIEVOREGIAMBATTISTA01:31:3700:00:2500:00:1901:30:53
102PADOANANDREA01:31:3800:00:2500:00:1901:30:54
103DI CESAREALBERTO01:31:4700:00:2500:00:1901:31:03
104VASONJOHNNY01:32:0200:00:2500:00:1901:31:18
105MARANVERONICA01:32:0500:00:2500:00:1901:31:21
106MACORMAURO01:32:0600:00:2500:00:1901:31:22
107CONTEMATTEO01:32:0700:00:2500:00:1901:31:23
108MIONMICHELE01:32:1300:00:2600:00:1901:31:28
109FAGGIONATOMATTEO01:32:1500:00:2600:00:1901:31:30
110RICCHIEROGIOVANNI01:32:1600:00:2600:00:1901:31:31
111PAVANSERGIO01:32:1600:00:2600:00:1901:31:31
112SGUARIONICOLA01:32:1600:00:2600:00:1901:31:31
113FESSLERJAN01:32:1800:00:2600:00:1901:31:33
114CANELLOANDREA01:32:2200:00:2600:00:1901:31:37
115REBELLATONICOLO’01:32:2500:00:2600:00:1901:31:40
116BASSONICOLA01:32:2900:00:2600:00:1901:31:44
117FASSINAENRICO01:32:3000:00:2600:00:1901:31:45
118MINETTOSIMONE01:32:3200:00:2600:00:1901:31:47
119ESQUINAZYMATTEO01:32:3300:00:2600:00:1901:31:48
120PIZZOANTONIO01:32:4200:00:2600:00:1901:31:57
121CASAGRANDEEDDY01:32:4800:00:2600:00:1901:32:03
122ANTONELLOGIOVANNA01:32:4900:00:2600:00:1901:32:04
123ADRAGNAMAURIZIO01:32:5200:00:2600:00:1901:32:07
124GUERRAGIANNI01:32:5300:00:2600:00:1901:32:08
125FAZIONGUIDO01:32:5900:00:2600:00:1901:32:14
126TONCELLIANDREA01:33:0400:00:2600:00:1901:32:19
127SCHIAVOLUCA01:33:1100:00:2600:00:1901:32:26
128MOCELLINALESSANDRO01:33:3200:00:2600:00:1901:32:46
129BENETTIANDREA01:33:3200:00:2600:00:1901:32:46
130TEACAGALINA01:33:3900:00:2600:00:1901:32:53
131BETTIOLNICOLA01:33:4000:00:2600:00:1901:32:54
132ROSSIEMANUELE01:33:4700:00:2600:00:1901:33:01
133ZIEROANGELO01:33:5300:00:2600:00:1901:33:07
134ZARPELLONDAVIDE01:33:5500:00:2600:00:1901:33:09
135VERNIERALESSANDRO01:34:0500:00:2700:00:1901:33:19
136DE ANTONIALBERTO01:34:1700:00:2700:00:1901:33:31
137DE MARCHIJACKLIN01:34:1800:00:2700:00:1901:33:32
138DECATALDOCOSIMO01:34:2000:00:2700:00:1901:33:34
139CHIARADACATERINA01:34:2200:00:2700:00:1901:33:36
140POLATOANDREA01:34:2700:00:2700:00:2001:33:41
141DOROPAOLA01:34:3600:00:2700:00:2001:33:50
142ZONZINSTEFANO01:34:3700:00:2700:00:2001:33:51
143BIANCHINFRANCESCO01:34:4100:00:2700:00:2001:33:55
144BACCHETTININICOLA01:34:4200:00:2700:00:2001:33:56
145FURLANANNA01:34:4200:00:2700:00:2001:33:56
146BOCCALUIGI01:34:4200:00:2700:00:2001:33:56
147LUTTERIARIANNA01:34:4400:00:2700:00:2001:33:57
148AGOSTINIMARIANNA01:34:4800:00:2700:00:2001:34:01
149MORINMASSIMO01:34:5500:00:2700:00:2001:34:08
150BISIOLORENZO01:34:5600:00:2700:00:2001:34:09
151BOLDRINCLAUDIO01:34:5900:00:2700:00:2001:34:12
152DE ROSSIANDREA01:34:5900:00:2700:00:2001:34:12
153ZORZETTOLUCA01:35:0200:00:2700:00:2001:34:15
154ZANETTEANDREA01:35:0200:00:2700:00:2001:34:15
155ZANETTINICOLA01:35:0500:00:2700:00:2001:34:18
156VIDALEDENIS01:35:0900:00:2700:00:2001:34:22
157PATTAROLUCA01:35:3200:00:2700:00:2001:34:45
158BAUCARLO GUSTAVO01:35:3300:00:2700:00:2001:34:46
159CAVAZZONNICOLA01:35:3600:00:2700:00:2001:34:49
160CARNIELMICHELE01:35:4700:00:2800:00:2001:35:00
161MARTINIENRICO01:35:5200:00:2800:00:2001:35:05
162PAGANIALESSANDRO01:35:5900:00:2800:00:2001:35:11
163AGOSTINELLIVITTORIO01:36:0300:00:2800:00:2001:35:15
164SOMMAVILLASARA01:36:0800:00:2800:00:2001:35:20
165DAL BIANCOLUCA01:36:0900:00:2800:00:2001:35:21
166TIOLIGIULIANA01:36:1500:00:2800:00:2001:35:27
167BELTRAMEGIANNI01:36:1700:00:2800:00:2001:35:29
168RIGONCARLO01:36:2900:00:2800:00:2001:35:41
169CECCATORICCARDO01:36:3500:00:2800:00:2001:35:47
170ARMENISAMANTHA01:36:4000:00:2800:00:2001:35:52
171GIANESINDANIELE01:36:4800:00:2800:00:2001:36:00
172ZACCHETTIGIANNI01:36:5300:00:2800:00:2001:36:05
173SESLIJADUBRAVKA01:37:0000:00:2800:00:2001:36:12
174MUZZETTOCORRADO01:37:0300:00:2800:00:2001:36:15
175TRENTOMARTINA01:37:0400:00:2800:00:2001:36:16
176FONTANAFABIO01:37:0500:00:2800:00:2001:36:17
177ZENALESSANDRO01:37:1600:00:2800:00:2001:36:27
178PASQUALOTTOANDREA01:37:2700:00:2800:00:2001:36:38
179DE LUCAFIORENZO01:37:2900:00:2800:00:2001:36:40
180CAZZOLAGIANNI01:37:3100:00:2800:00:2001:36:42
181MULTINEDDUMICHELE01:37:3600:00:2900:00:2001:36:47
182FURLANISSTEFANO01:37:3700:00:2900:00:2001:36:48
183PEGORAROALESSANDRO01:37:3900:00:2900:00:2001:36:50
184TOMASONIGIOVANNI01:37:4500:00:2900:00:2001:36:56
185MAZZACAVALLOGIANTONIO01:37:4700:00:2900:00:2001:36:58
186FRENIANTONIO01:37:5000:00:2900:00:2001:37:01
187BERGOGIAN MARIA01:37:5200:00:2900:00:2001:37:03
188NICOLINICLAUDIO01:37:5300:00:2900:00:2001:37:04
189CIABATTONISTEFANO01:37:5400:00:2900:00:2001:37:05
190MASTRAGOSTINOALBERTO01:38:0000:00:2900:00:2001:37:11
191BETTEGASTEFANO01:38:0300:00:2900:00:2001:37:14
192ZANOTTOOMAR01:38:0700:00:2900:00:2001:37:18
193MILANIMARCO01:38:0900:00:2900:00:2001:37:20
194GIUSTITALO01:38:1200:00:2900:00:2001:37:23
195GOLASTEFANO01:38:1500:00:2900:00:2001:37:26
196PIZZOLATOSTEFANO01:38:2300:00:2900:00:2001:37:34
197MUNEROTTORICCARDO01:38:2800:00:2900:00:2001:37:39
198QUADRETTILUCA01:38:3000:00:2900:00:2001:37:41
199BAGGIODAVIDE01:38:3500:00:2900:00:2001:37:45
200XODOFABIO01:38:4200:00:2900:00:2101:37:52
201APOLLONI TOMAMAURIZIO01:38:5000:00:2900:00:2101:38:00
202SANTINPAOLO01:38:5200:00:2900:00:2101:38:02
203PELOSOJACOPO01:38:5400:00:2900:00:2101:38:04
204ALBANESEANGELO01:38:5600:00:2900:00:2101:38:06
205VILLAMATTEO01:39:0300:00:2900:00:2101:38:13
206VALERIOGIOVANNI01:39:0500:00:2900:00:2101:38:15
207BALDONALBERTO01:39:0600:00:2900:00:2101:38:16
208MARTINELLIMANUEL01:39:0900:00:2900:00:2101:38:19
209GASTALDELLOVENICIO01:39:1500:00:2900:00:2101:38:25
210MENEGHINIDARIO01:39:1600:00:2900:00:2101:38:26
211BOSCHETTOISABELLA01:39:1800:00:2900:00:2101:38:28
212COMUNELLOADAMO01:39:1900:00:2900:00:2101:38:29
213FURLANEGIDIO01:39:3100:00:3000:00:2101:38:41
214PASTRELLOLORENZO01:39:4800:00:3000:00:2101:38:57
215MASSIGNANIMARTINO01:39:4900:00:3000:00:2101:38:58
216BOTTACINPAOLO01:40:1400:00:3000:00:2101:39:23
217CESCUTTIALBERTO01:40:2900:00:3000:00:2101:39:38
218ZANINSTEFANIA01:40:5500:00:3000:00:2101:40:04
219FAGGIANFILIPPO01:40:5700:00:3000:00:2101:40:06
220BIZZOTTOMASSIMO01:40:5700:00:3000:00:2101:40:06
221BURINIOMAR01:41:0400:00:3000:00:2101:40:12
222BOTTAZZICRISTINA01:41:0800:00:3100:00:2101:40:16
223MARCHESINSABRINA01:41:2500:00:3100:00:2101:40:33
224ERMIRALDOGIANLUCA01:41:3100:00:3100:00:2101:40:39
225FRELLODEMYS01:41:4000:00:3100:00:2101:40:48
226SCAPINROMEO01:41:4500:00:3100:00:2101:40:53
227ZAGOLINPAOLA01:41:4600:00:3100:00:2101:40:54
228DI TURILEONARDO01:41:5500:00:3100:00:2101:41:03
229BOTTERPIER ENRICO01:41:5700:00:3100:00:2101:41:05
230BOSCARDINMADDALENA01:42:0300:00:3100:00:2101:41:11
231BORSOSILVIO01:42:0700:00:3100:00:2101:41:15
232HOLLEYRICHARD01:42:1100:00:3100:00:2101:41:19
233CREMASCHIGIAN PAOLO01:42:1400:00:3100:00:2101:41:22
234LORICOFABIO01:42:1500:00:3100:00:2101:41:23
235CORTESEVERONICA01:42:1700:00:3100:00:2101:41:25
236BOSCAINMAURO01:42:2000:00:3100:00:2101:41:27
237OZZIENRICO01:42:2200:00:3100:00:2101:41:29
238TOMASFABRIZIO01:42:2500:00:3100:00:2101:41:32
239MOCELLINELIA01:42:2700:00:3100:00:2101:41:34
240WICHTERICHCHRISTOPH01:42:3400:00:3100:00:2101:41:41
241CASTELLOSTEFANO01:42:3700:00:3100:00:2101:41:44
242TONELLOSIMONE01:42:4100:00:3100:00:2101:41:48
243BELLONMARKUS01:43:0200:00:3200:00:2201:42:09
244TONELLOSTEFANO01:43:0400:00:3200:00:2201:42:11
245CRUCIANIGIUSEPPE01:43:1100:00:3200:00:2201:42:18
246ZANOLOANDREA01:43:2700:00:3200:00:2201:42:34
247ANTIDORMIFABIO01:43:2900:00:3200:00:2201:42:36
248SCARELLOSAMUELE01:43:3300:00:3200:00:2201:42:40
249POLONIMIRCO01:43:3300:00:3200:00:2201:42:40
250LADISAANDREA01:43:3500:00:3200:00:2201:42:41
251VESENTINIMATTIA01:43:3900:00:3200:00:2201:42:45
252RIGOTTORENZO01:43:5200:00:3200:00:2201:42:58
253PASQUALETTOUMBERTO01:43:5600:00:3200:00:2201:43:02
254RAVAGNANANDREA01:44:0100:00:3200:00:2201:43:07
255SARTORFULVIO01:44:0700:00:3200:00:2201:43:13
256BENEDINIALESSANDRO01:44:1100:00:3200:00:2201:43:17
257DALL’IGNAPAOLO01:44:1600:00:3200:00:2201:43:22
258STRAZZARIALESSIO01:44:2700:00:3200:00:2201:43:33
259ZANOVELLOFABIO01:44:3400:00:3200:00:2201:43:40
260METRAKPETER01:44:5000:00:3300:00:2201:43:55
261REGGIANICARLO01:44:5200:00:3300:00:2201:43:57
262STELLADANIELE01:44:5700:00:3300:00:2201:44:02
263PETRO’PAOLO01:45:0700:00:3300:00:2201:44:12
264PIVATOMASSIMO01:45:0900:00:3300:00:2201:44:14
265DALLE RIVESTEFANO01:45:1000:00:3300:00:2201:44:15
266CORTESEROGER DOMENICO01:45:1500:00:3300:00:2201:44:20
267PEDERZINIIVAN01:45:1800:00:3300:00:2201:44:23
268FERRONATOGIORGIO01:45:1800:00:3300:00:2201:44:23
269DI PIETRALEONARDO SANDRO01:45:2200:00:3300:00:2201:44:27
270PADOVANAGOSTINO01:45:2600:00:3300:00:2201:44:31
271BONATESTAIGOR01:45:2800:00:3300:00:2201:44:33
272GRISOELISA01:45:2800:00:3300:00:2201:44:33
273ZANOTTOMICHELE01:45:3700:00:3300:00:2201:44:42
274FAZIFEDERICO01:45:4300:00:3300:00:2201:44:48
275DI RUSCIOCLAUDIO01:45:4600:00:3300:00:2201:44:51
276ZENALESSANDRO01:45:5000:00:3300:00:2201:44:55
277ZAMBERLANALICE01:46:0000:00:3300:00:2201:45:05
278SCHMIDPHILIP01:46:0500:00:3300:00:2201:45:09
279VIDALEANTONIO01:46:0600:00:3300:00:2201:45:10
280BALDINAMARIA01:46:0800:00:3300:00:2201:45:12
281PELIZZAROCARLO01:46:1100:00:3300:00:2201:45:15
282DAL MASOELISABETTA01:46:1300:00:3300:00:2201:45:17
283MAGLIULOGIOVANNI NICOLA01:46:1400:00:3300:00:2201:45:18
284DAL SANTOSIMONE01:46:1800:00:3300:00:2201:45:22
285MARZENTADANIELE01:46:2000:00:3300:00:2201:45:24
286ZOTTINOLUCA01:46:3000:00:3400:00:2201:45:34
287COMINFRANCO01:46:3400:00:3400:00:2201:45:38
288PELIZZARIGIORGIO01:46:3900:00:3400:00:2201:45:43
289CATTELANMARIANNA01:46:4900:00:3400:00:2201:45:53
290BERTIVALENTINA01:47:0700:00:3400:00:2201:46:11
291GALIMBERTIMICHELE01:47:0800:00:3400:00:2201:46:12
292RIZZAGIOVANNI01:47:1100:00:3400:00:2201:46:15
293COLO’FABIO01:47:1100:00:3400:00:2201:46:15
294LAZZARINIISABELLA01:47:2900:00:3400:00:2301:46:32
295FRIGOPAOLO01:47:3100:00:3400:00:2301:46:34
296STRAFELLAFLAVIO01:47:3100:00:3400:00:2301:46:34
297BRIGOMARCO01:47:3600:00:3400:00:2301:46:39
298CECCATOGINO01:48:0100:00:3400:00:2301:47:04
299VIEROLILIA01:48:0300:00:3400:00:2301:47:06
300MORATELLOALBERTO01:48:0900:00:3400:00:2301:47:12
301MANDELLIMARCO01:48:1400:00:3400:00:2301:47:17
302RAMPADOALBERTO01:48:1400:00:3400:00:2301:47:17
303GASTALDELLOSIMONE01:48:3900:00:3500:00:2301:47:41
304TORRICELLIVALERIA01:48:4000:00:3500:00:2301:47:42
305BIANCHIMARTA01:48:4900:00:3500:00:2301:47:51
306FOLETTOMATTEO01:48:5300:00:3500:00:2301:47:55
307RIGONISILVIA01:49:0400:00:3500:00:2301:48:06
308DANIELEFEDERICO01:49:1300:00:3500:00:2301:48:15
309RIZZOGIOVANNI01:49:2200:00:3500:00:2301:48:24
310WANKOCARMEN01:49:2500:00:3500:00:2301:48:27
311ZOTTOLAPAOLO01:49:3000:00:3500:00:2301:48:32
312VAROTTOSTEFANO01:49:3500:00:3500:00:2301:48:37
313CITTONMARGHERITA01:49:4200:00:3500:00:2301:48:44
314BORTOLAMIVALENTINA01:49:5400:00:3500:00:2301:48:55
315LAVARDADANIELE01:49:5400:00:3500:00:2301:48:55
316NONISSILENO01:49:5600:00:3500:00:2301:48:57
317MIONALBERTO01:50:0000:00:3500:00:2301:49:01
318BOSCARATOROBERTO01:50:1200:00:3600:00:2301:49:13
319MICHELETTOMATTEO01:50:1400:00:3600:00:2301:49:15
320MAGRINALESSANDRO01:50:2200:00:3600:00:2301:49:23
321FONDAPAOLO01:50:2200:00:3600:00:2301:49:23
322DAI ZOTTIMARCO01:50:3100:00:3600:00:2301:49:32
323CESARIOCOSIMO PIETRO01:50:3300:00:3600:00:2301:49:34
324ALBERTIDEVIS01:50:4000:00:3600:00:2301:49:41
325BELLO’FRANCESCO01:50:4700:00:3600:00:2301:49:48
326ZANCANAROPAOLO01:50:5100:00:3600:00:2301:49:52
327PALUELLOMAURO01:50:5800:00:3600:00:2301:49:59
328MARTINIPATRIZIO01:51:0200:00:3600:00:2301:50:03
329ZAMPIERONANNA MARIA01:51:1100:00:3600:00:2301:50:11
330VINCENZIMARCO01:51:2000:00:3600:00:2301:50:20
331POZZANLUCA01:51:2100:00:3600:00:2301:50:21
332GRIGGIOLIBERO01:51:3700:00:3600:00:2401:50:37
333WICHTERICHMARTINA01:51:3900:00:3600:00:2401:50:39
334DISSEGNASERGIO01:51:4200:00:3600:00:2401:50:42
335PILOTTOANDREA01:51:4200:00:3600:00:2401:50:42
336TESSAROLLOANGELO01:51:4400:00:3600:00:2401:50:44
337AFFRANIOROBERTO01:51:4500:00:3600:00:2401:50:45
338TROMBONMATTIA01:52:0600:00:3700:00:2401:51:06
339PASSARINLIVIO01:52:1400:00:3700:00:2401:51:14
340PORNAROANTONIO01:52:1400:00:3700:00:2401:51:14
341BARDINIMARIA ELISA01:52:2100:00:3700:00:2401:51:21
342MAGGIANIGIADA01:52:3200:00:3700:00:2401:51:31
343PASSUELLOANDREA01:52:3300:00:3700:00:2401:51:32
344SERRAGLIADEMETRIO01:52:4400:00:3700:00:2401:51:43
345LASIOALESSANDRO01:52:5600:00:3700:00:2401:51:55
346POLATOMAURIZIO01:53:0800:00:3700:00:2401:52:07
347CANDIOTTOLUCIA01:53:1100:00:3700:00:2401:52:10
348AMADIOGIORGIO01:53:1200:00:3700:00:2401:52:11
349VEZZARORENZO01:53:1600:00:3700:00:2401:52:15
350DE FRANCESCHILORENZA01:53:2000:00:3700:00:2401:52:19
351FAVARETTOALESSANDRO01:53:2100:00:3700:00:2401:52:20
352DONAGEMMAGIULIO01:53:3000:00:3700:00:2401:52:29
353ZENSTEFANO01:53:5100:00:3800:00:2401:52:49
354LUNARDONENRICO01:53:5200:00:3800:00:2401:52:50
355GLAUNERD?SIR?E01:53:5800:00:3800:00:2401:52:56
356SCALCONICOLA01:54:0000:00:3800:00:2401:52:58
357SCOCCIACARLO01:54:0300:00:3800:00:2401:53:01
358SOTTORIVAMIRANDA01:54:0400:00:3800:00:2401:53:02
359DE NICOLAOBARBARA01:54:1700:00:3800:00:2401:53:15
360RIGONALBERTO01:54:1800:00:3800:00:2401:53:16
361BERTOTTOMASSIMO01:54:2400:00:3800:00:2401:53:22
362BATTOCCHIOGIUSEPPE01:54:2600:00:3800:00:2401:53:24
363FELLEGARAMARCO01:54:2700:00:3800:00:2401:53:25
364REDINISTEFANO01:54:3900:00:3800:00:2401:53:37
365ZAMPARODORETTA01:54:4800:00:3800:00:2401:53:46
366BERTICOSTANTINO01:54:5100:00:3800:00:2401:53:49
367BRUNELLOFABIO01:54:5900:00:3800:00:2401:53:56
368RAGAZZOSONIA01:55:2300:00:3800:00:2401:54:20
369MONTANARIALESSIO01:55:3000:00:3900:00:2401:54:27
370BORDIGNONEMANUELE01:55:3700:00:3900:00:2401:54:34
371VETTOREFIORENZO01:55:4300:00:3900:00:2401:54:40
372REGGIANIMATTEO01:56:0100:00:3900:00:2501:54:58
373FIORMIRCO01:56:1100:00:3900:00:2501:55:07
374GIANESINSANDRO01:56:1300:00:3900:00:2501:55:09
375PISANIALBERTO01:56:1700:00:3900:00:2501:55:13
376FERRONATOLEONARDO01:56:2600:00:3900:00:2501:55:22
377MAZZOLIRICCARDO01:56:3200:00:3900:00:2501:55:28
378BAGNOLIGIOVANNI01:56:4200:00:3900:00:2501:55:38
379DOROFLORA01:57:3400:00:4000:00:2501:56:29
380MIZGURSTEFANO01:57:4100:00:4000:00:2501:56:36
381BARTOLACCISAMUELA01:57:4500:00:4000:00:2501:56:40
382DONAGEMMAGIUSEPPE01:57:5500:00:4000:00:2501:56:50
383POZZAFRANCO01:58:0400:00:4000:00:2501:56:59
384SAFFIOTIVINCENZO01:58:1400:00:4000:00:2501:57:09
385PIGATOVITTORINO01:58:3800:00:4000:00:2501:57:33
386FURLANETTOMANUEL01:58:5300:00:4000:00:2501:57:47
387MINUTOMATTEO01:58:5800:00:4000:00:2501:57:52
388FACCHINELLOSAMUELE01:58:5900:00:4000:00:2501:57:53
389CASTALDELLOMAURO01:59:0800:00:4100:00:2501:58:02
390PAGLIANIMASSIMO01:59:1500:00:4100:00:2501:58:09
391MACCACCAROBRUNA01:59:1900:00:4100:00:2501:58:13
392COSERROLANDO01:59:4700:00:4100:00:2501:58:41
393STANICZVONKO01:59:5000:00:4100:00:2501:58:44
394TURRINSIMONETTA02:00:0600:00:4100:00:2601:58:59
395BAUMSUSANNE02:00:0700:00:4100:00:2601:59:00
396POMPONIOMATTEO02:00:0900:00:4100:00:2601:59:02
397MORGANTECALOGERO02:00:1300:00:4100:00:2601:59:06
398SOLAGNARINALDO02:00:3100:00:4100:00:2601:59:24
399DE ROCCOROBERTO02:00:4300:00:4100:00:2601:59:36
400COROLIUCMARIANA02:00:5100:00:4200:00:2601:59:44
401ROSSILORENZO02:01:3000:00:4200:00:2602:00:22
402SECUROERICA02:01:3500:00:4200:00:2602:00:27
403BORDIGNONDANIELE LUIGI02:01:4400:00:4200:00:2602:00:36
404FONTANAANTONIO02:01:4800:00:4200:00:2602:00:40
405RINALDISROSSANA02:01:5200:00:4200:00:2602:00:44
406BOZZOLANFRANCESCO02:02:0600:00:4200:00:2602:00:58
407ZANONMICHELE02:02:2400:00:4200:00:2602:01:16
408MENEGHETTIFRANCO02:02:4200:00:4300:00:2602:01:33
409GAZZOLAMASSIMO02:02:5300:00:4300:00:2602:01:44
410BELTRAMESAMUEL02:03:0000:00:4300:00:2602:01:51
411RIGHETTODAVIDE02:03:1500:00:4300:00:2602:02:06
412ZANCHETTAJESSICA02:03:2600:00:4300:00:2602:02:17
413DISSEGNAARNALDO02:03:4200:00:4300:00:2602:02:33
414CARLETTIGIOVANNI02:03:4200:00:4300:00:2602:02:33
415BRUNMARISTELLA02:03:4700:00:4300:00:2602:02:37
416ZAMPIERONDANIELA02:03:4800:00:4300:00:2602:02:38
417CRIVELLARIGIUSTO02:04:1100:00:4300:00:2602:03:01
418CALONGHIGIANFRANCO02:04:1500:00:4300:00:2602:03:05
419STEFANILUIGI02:04:2900:00:4400:00:2702:03:19
420NATOGIOVANNI02:04:4600:00:4400:00:2702:03:36
421PERBONIENRICO02:04:4900:00:4400:00:2702:03:39
422PESAVENTOFILIPPO02:04:5200:00:4400:00:2702:03:42
423BERGAMINPAOLO02:04:5500:00:4400:00:2702:03:45
424CICOGNAGIOVANNA02:05:3100:00:4400:00:2702:04:20
425D’ITALIABENIAMINO02:05:3300:00:4400:00:2702:04:22
426TONELLO GAMBETTAROBERTO02:05:4400:00:4400:00:2702:04:33
427BERNARDOCLAUDIO02:06:0300:00:4400:00:2702:04:52
428NARDINIGILBERTO02:06:0700:00:4400:00:2702:04:56
429PLACIDAVALENTINA E VINCENZO02:06:0700:00:4400:00:2702:04:56
430TESSARIALESSANDRO02:06:3200:00:4500:00:2702:05:20
431ARCADIPANEGIOACHINO02:07:2100:00:4500:00:2702:06:09
432BERTINMORENO02:07:2100:00:4500:00:2702:06:09
433BERTINILARIA02:07:2200:00:4500:00:2702:06:10
434DALLA LIBERALUCA02:07:5200:00:4500:00:2702:06:39
435GIAROLIANGELO02:08:2600:00:4600:00:2702:07:13
436SCHIAVONDANIELA02:08:3100:00:4600:00:2702:07:18
437TONINCARLO02:08:3600:00:4600:00:2802:07:23
438BILOTTARICCARDO02:08:4800:00:4600:00:2802:07:35
439ALBERTONLUCA02:08:4900:00:4600:00:2802:07:35
440VIDOTTOMARIA02:08:5600:00:4600:00:2802:07:42
441NODARIIVAN02:09:4800:00:4700:00:2802:08:34
442TOGNONGHERARDO02:10:3300:00:4700:00:2802:09:18
443ZELLAMIRCO02:13:2000:00:4800:00:2902:12:03
444BATTAGLIAELEONORA02:14:0700:00:4900:00:2902:12:49
445STELITANOGIANNI02:14:2900:00:4900:00:2902:13:11
446CHILESECRISTIAN02:15:0500:00:4900:00:2902:13:47
447POZZAALESSANDRO02:15:0600:00:4900:00:2902:13:48
448BIGARELLAMAURIZIO02:15:3300:00:5000:00:2902:14:14
449GIGANTIKATIUSKA02:15:5800:00:5000:00:2902:14:39
450TURRINIPAOLO02:16:2100:00:5000:00:2902:15:02
451ZANELLATOADRIANO02:16:2900:00:5000:00:2902:15:09
452PANVANESSA02:16:5300:00:5000:00:2902:15:33
453BISINELLALUCIANO02:16:5400:00:5000:00:2902:15:34
454CARRAROPAOLO ENRICO02:16:5500:00:5000:00:2902:15:35
455LAGOALESSANDRO02:21:4600:00:5300:00:3102:20:22
456ZANOLLIRICCARDO02:22:5900:00:5400:00:3102:21:34
457VIERORICCARDO02:22:5900:00:5400:00:3102:21:34
458BERTINICOLA02:23:0200:00:5400:00:3102:21:37
459BERTOLINLUCA02:23:0300:00:5400:00:3102:21:38
460LANDOALEX02:23:0300:00:5400:00:3102:21:38
461STOCCOELISABETTA02:23:0300:00:5400:00:3102:21:38
462FRISONPAOLO02:23:0300:00:5400:00:3102:21:38
463MAGLIARICCARDO02:23:0300:00:5400:00:3102:21:38
464TAPPARELLOANDREA02:23:0300:00:5400:00:3102:21:38
465LANDOVANESSA02:23:0300:00:5400:00:3102:21:38
466ZONTALUCA02:23:0400:00:5400:00:3102:21:39
467BORDIGNONLUCA02:23:0400:00:5400:00:3102:21:39
468COSTENAROFAUSTO02:23:0400:00:5400:00:3102:21:39
469BIGOLINGIACOMO02:23:0500:00:5400:00:3102:21:40
470PADOVANGIUSEPPE02:23:0500:00:5400:00:3102:21:40
471ZANINALESSANDRO02:23:0700:00:5400:00:3102:21:42
472FONTANAANDREA02:23:0800:00:5400:00:3102:21:43
473CELIROBERTA02:23:0800:00:5400:00:3102:21:43
474BONATOLAURA02:23:0800:00:5400:00:3102:21:43
475PAROLINSONIA02:23:0900:00:5400:00:3102:21:44
476DAL CHECCOCRISTINA02:23:5800:00:5400:00:3102:22:32
477STRAZZARIANSELMO02:24:0300:00:5400:00:3102:22:37
478CIANNICRISTINA02:24:3900:00:5500:00:3102:23:13
479ZAFFRALAURA02:24:4200:00:5500:00:3102:23:16
480CAROSSAROBERTA02:24:4300:00:5500:00:3102:23:17
481BATTIGELLISILVANO02:28:0300:00:5700:00:3202:26:34
482PALMERINICOLO’02:28:5500:00:5700:00:3202:27:26
483LUISONANDREA02:33:2100:01:0000:00:3302:31:48
484CHIAPPARINOANNA MARIA02:36:5100:01:0200:00:3402:35:15
485BODONPAOLO02:38:3100:01:0300:00:3502:36:54

Lascia un commento

Il tuo indirizzo email non sarà pubblicato. I campi obbligatori sono contrassegnati *